Sacramento / Mc Clellan, CA

7:16 AM PDT on July 23, 2017 (GMT -0700)
McClellan

Weather History for KMCC - September, 2013

Change the Weather History Date:

Sunday, September 29, 2013

  Actual Average (KMHR) Record (KMHR)
Temperature  
Mean Temperature 67 °F -  
Max Temperature 77 °F 81 °F 96 °F (1997)
Min Temperature 57 °F 52 °F 48 °F (2000)
Cooling Degree Days 2    
Growing Degree Days 17 (Base 50)    
Moisture  
Dew Point 54 °F    
Average Humidity 66    
Maximum Humidity 88    
Minimum Humidity 44    
Precipitation  
Precipitation 0.00 in - - ()
Sea Level Pressure  
Sea Level Pressure 30.07 in    
Wind  
Wind Speed 9 mph (South)    
Max Wind Speed 15 mph    
Max Gust Speed 22 mph    
Visibility 10 miles    
Events      
Averages and records for this station are not official NWS values.
T = Trace of Precipitation, MM = Missing Value Source: NWS Daily Summary

Daily Weather History Graph

Daily Weather History Graph

Search for Another Location

Airport or City:

Trip Planner

Search our weather history database for the weather conditions in past years. The results will help you decide how hot, cold, wet, or windy it might be!

Date:

Astronomy

Sep. 29, 2013 Rise Set
Actual Time 6:59 AM PDT 6:50 PM PDT
Civil Twilight 6:33 AM PDT 7:17 PM PDT
Nautical Twilight 6:02 AM PDT 7:48 PM PDT
Astronomical Twilight 5:31 AM PDT 8:19 PM PDT
Moon 1:49 AM PDT (9/29) 3:47 PM PDT (9/29)
Length of Visible Light 12h 43m
Length of Day
11h 51m
Waning Crescent, 26% of the Moon is Illuminated
Sep 29
Waning Crescent
Oct 4
New
Oct 11
First Quarter
Oct 18
Full
Oct 26
Last Quarter

Hourly Weather History & Observations

Time (PDT) Temp. Dew Point Humidity Pressure Visibility Wind Dir Wind Speed Gust Speed Precip Events Conditions
12:10 AM 62.6 °F 48.2 °F 59% 30.04 in 10.0 mi SE 6.9 mph - N/A   Clear
12:30 AM 62.6 °F 48.2 °F 59% 30.05 in 10.0 mi SSE 6.9 mph - N/A   Clear
12:50 AM 60.8 °F 50.0 °F 68% 30.05 in 10.0 mi SSE 6.9 mph - N/A   Clear
1:10 AM 60.8 °F 50.0 °F 68% 30.05 in 10.0 mi SSE 9.2 mph - N/A   Clear
1:30 AM 60.8 °F 50.0 °F 68% 30.05 in 10.0 mi SE 10.4 mph - N/A   Clear
1:50 AM 59.0 °F 50.0 °F 72% 30.06 in 10.0 mi SE 10.4 mph - N/A   Clear
2:10 AM 59.0 °F 51.8 °F 77% 30.07 in 10.0 mi SSE 6.9 mph - N/A   Clear
2:30 AM 59.0 °F 50.0 °F 72% 30.06 in 10.0 mi SSE 8.1 mph - N/A   Clear
2:50 AM 59.0 °F 51.8 °F 77% 30.06 in 10.0 mi SE 10.4 mph - N/A   Clear
3:10 AM 59.0 °F 51.8 °F 77% 30.05 in 10.0 mi SE 11.5 mph - N/A   Clear
3:30 AM 59.0 °F 53.6 °F 82% 30.05 in 10.0 mi SE 11.5 mph - N/A   Clear
3:50 AM 59.0 °F 53.6 °F 82% 30.06 in 10.0 mi SE 10.4 mph - N/A   Clear
4:10 AM 59.0 °F 53.6 °F 82% 30.05 in 10.0 mi SE 9.2 mph - N/A   Clear
4:30 AM 59.0 °F 53.6 °F 82% 30.05 in 10.0 mi SE 12.7 mph - N/A   Clear
4:50 AM 59.0 °F 53.6 °F 82% 30.04 in 10.0 mi SE 13.8 mph - N/A   Clear
5:10 AM 57.2 °F 53.6 °F 88% 30.06 in 10.0 mi SSE 8.1 mph - N/A   Clear
5:30 AM 57.2 °F 53.6 °F 88% 30.07 in 10.0 mi SE 8.1 mph - N/A   Clear
5:50 AM 57.2 °F 53.6 °F 88% 30.06 in 10.0 mi SE 12.7 mph - N/A   Clear
6:10 AM 57.2 °F 53.6 °F 88% 30.07 in 10.0 mi SSE 8.1 mph - N/A   Clear
6:30 AM 57.2 °F 53.6 °F 88% 30.08 in 10.0 mi SE 5.8 mph - N/A   Clear
6:50 AM 57.2 °F 53.6 °F 88% 30.08 in 10.0 mi SE 8.1 mph - N/A   Clear
7:10 AM 57.2 °F 53.6 °F 88% 30.08 in 10.0 mi SE 9.2 mph - N/A   Clear
7:30 AM 57.2 °F 53.6 °F 88% 30.09 in 10.0 mi SE 8.1 mph - N/A   Clear
7:50 AM 59.0 °F 53.6 °F 82% 30.08 in 10.0 mi SE 12.7 mph - N/A   Clear
8:10 AM 59.0 °F 53.6 °F 82% 30.09 in 10.0 mi SE 11.5 mph - N/A   Clear
8:30 AM 59.0 °F 53.6 °F 82% 30.09 in 10.0 mi SE 10.4 mph - N/A   Clear
8:50 AM 62.6 °F 53.6 °F 72% 30.10 in 10.0 mi SE 10.4 mph - N/A   Clear
9:10 AM 62.6 °F 53.6 °F 72% 30.10 in 10.0 mi SE 8.1 mph - N/A   Clear
9:30 AM 64.4 °F 55.4 °F 73% 30.10 in 10.0 mi SSE 10.4 mph - N/A   Clear
9:50 AM 66.2 °F 55.4 °F 68% 30.11 in 10.0 mi South 10.4 mph - N/A   Clear
10:10 AM 66.2 °F 55.4 °F 68% 30.11 in 9.0 mi SE 9.2 mph - N/A   Clear
10:30 AM 68.0 °F 55.4 °F 64% 30.11 in 10.0 mi SSE 9.2 mph - N/A   Clear
10:50 AM 69.8 °F 55.4 °F 60% 30.10 in 10.0 mi South 11.5 mph 16.1 mph N/A   Clear
11:10 AM 73.4 °F 55.4 °F 53% 30.10 in 10.0 mi SSE 13.8 mph - N/A   Clear
11:30 AM 71.6 °F 55.4 °F 57% 30.10 in 9.0 mi South 6.9 mph - N/A   Clear
11:50 AM 71.6 °F 55.4 °F 57% 30.09 in 10.0 mi SE 11.5 mph - N/A   Clear
12:10 PM 73.4 °F 55.4 °F 53% 30.10 in 10.0 mi SSW 11.5 mph - N/A   Clear
12:30 PM 73.4 °F 55.4 °F 53% 30.10 in 10.0 mi SSW 8.1 mph - N/A   Clear
12:50 PM 73.4 °F 55.4 °F 53% 30.09 in 10.0 mi South 11.5 mph - N/A   Clear
1:10 PM 73.4 °F 55.4 °F 53% 30.09 in 10.0 mi SSW 5.8 mph - N/A   Clear
1:30 PM 75.2 °F 55.4 °F 50% 30.08 in 10.0 mi South 10.4 mph 17.3 mph N/A   Clear
1:50 PM 75.2 °F 55.4 °F 50% 30.07 in 10.0 mi South 8.1 mph - N/A   Clear
2:10 PM 77.0 °F 55.4 °F 47% 30.06 in 10.0 mi South 9.2 mph - N/A   Clear
2:30 PM 77.0 °F 55.4 °F 47% 30.05 in 10.0 mi SW 9.2 mph - N/A   Scattered Clouds
2:50 PM 77.0 °F 55.4 °F 47% 30.05 in 10.0 mi WSW 10.4 mph - N/A   Partly Cloudy
3:10 PM 75.2 °F 55.4 °F 50% 30.05 in 10.0 mi SSW 8.1 mph - N/A   Clear
3:30 PM 77.0 °F 53.6 °F 44% 30.05 in 10.0 mi SSW 5.8 mph - N/A   Clear
3:50 PM 77.0 °F 53.6 °F 44% 30.04 in 10.0 mi South 12.7 mph 16.1 mph N/A   Clear
4:10 PM 77.0 °F 53.6 °F 44% 30.04 in 10.0 mi SSW 11.5 mph - N/A   Clear
4:30 PM 75.2 °F 53.6 °F 47% 30.04 in 10.0 mi SSW 10.4 mph - N/A   Clear
4:50 PM 75.2 °F 53.6 °F 47% 30.04 in 10.0 mi SW 12.7 mph - N/A   Clear
5:10 PM 77.0 °F 55.4 °F 47% 30.03 in 10.0 mi SW 15.0 mph 19.6 mph N/A   Clear
5:30 PM 75.2 °F 55.4 °F 50% 30.03 in 10.0 mi SSW 13.8 mph 21.9 mph N/A   Clear
5:50 PM 75.2 °F 55.4 °F 50% 30.03 in 10.0 mi SSW 12.7 mph - N/A   Clear
6:10 PM 73.4 °F 53.6 °F 50% 30.03 in 10.0 mi SSW 11.5 mph - N/A   Clear
6:30 PM 73.4 °F 55.4 °F 53% 30.03 in 10.0 mi SSW 9.2 mph - N/A   Clear
6:50 PM 73.4 °F 55.4 °F 53% 30.03 in 10.0 mi SSW 12.7 mph - N/A   Clear
7:10 PM 71.6 °F 55.4 °F 57% 30.04 in 10.0 mi SSW 11.5 mph - N/A   Clear
7:30 PM 71.6 °F 55.4 °F 57% 30.05 in 10.0 mi SSW 10.4 mph 16.1 mph N/A   Clear
7:50 PM 69.8 °F 55.4 °F 60% 30.06 in 10.0 mi SW 11.5 mph 17.3 mph N/A   Clear
8:10 PM 68.0 °F 57.2 °F 68% 30.06 in 10.0 mi SW 10.4 mph 17.3 mph N/A   Partly Cloudy
8:30 PM 68.0 °F 57.2 °F 68% 30.07 in 10.0 mi SSW 10.4 mph - N/A   Clear
8:50 PM 68.0 °F 57.2 °F 68% 30.07 in 10.0 mi SW 8.1 mph - N/A   Clear
9:10 PM 68.0 °F 57.2 °F 68% 30.07 in 10.0 mi SW 8.1 mph - N/A   Clear
9:30 PM 66.2 °F 57.2 °F 73% 30.07 in 10.0 mi SSW 9.2 mph - N/A   Clear
9:50 PM 66.2 °F 57.2 °F 73% 30.07 in 10.0 mi SW 9.2 mph - N/A   Clear
10:10 PM 66.2 °F 57.2 °F 73% 30.07 in 10.0 mi SW 10.4 mph - N/A   Clear
10:30 PM 66.2 °F 57.2 °F 73% 30.07 in 10.0 mi SW 8.1 mph - N/A   Clear
10:50 PM 66.2 °F 57.2 °F 73% 30.07 in 10.0 mi SSW 6.9 mph - N/A   Clear
11:10 PM 64.4 °F 57.2 °F 77% 30.07 in 10.0 mi South 5.8 mph - N/A   Clear
11:30 PM 64.4 °F 57.2 °F 77% 30.07 in 10.0 mi South 9.2 mph - N/A   Clear
11:50 PM 64.4 °F 57.2 °F 77% 30.07 in 10.0 mi South 9.2 mph - N/A   Clear